Lapse_Rate
7.4 7.5 7.5 7.5 7.4 7.5 7.5 7.5 7.5 7.4 7.4 7.3 7.2 7.2 7.1 7.1 7.1 7.2 7.1 7.1 7.0 7.0 6.7 6.4 6.4 6.4 6.3 6.2 6.2 6.1 6.2 6.4 6.7 6.3 6.2 6.1 5.7 5.5 5.2 5.1 5.0 5.4 5.4
7.5 7.6 7.7 7.7 7.8 7.8 7.8 7.7 7.6 7.6 7.5 7.4 7.3 7.2 7.2 7.1 7.0 7.0 7.0 7.0 7.1 6.9 6.7 6.5 6.5 6.5 6.6 6.2 6.3 6.4 6.1 6.3 6.6 6.4 6.2 6.1 5.8 5.4 5.1 5.1 5.2 5.6 5.6
7.9 7.7 7.6 7.8 7.8 7.8 7.6 7.6 7.6 7.6 7.5 7.4 7.4 7.3 7.2 7.0 7.0 6.9 6.8 6.8 6.8 6.9 6.8 6.7 6.6 6.6 6.6 6.3 6.3 6.4 6.5 6.7 6.7 6.6 6.3 5.9 5.7 5.4 5.1 5.0 5.4 5.5 5.8
7.8 7.7 7.7 7.7 7.8 7.8 7.7 7.6 7.7 7.6 7.5 7.5 7.3 7.3 7.2 7.0 6.8 6.8 6.8 6.8 6.6 6.6 6.5 6.6 6.6 6.6 6.6 6.4 6.4 6.5 6.4 6.3 6.6 6.6 6.3 6.1 5.6 5.3 5.0 4.9 5.6 5.6 6.1
7.8 7.9 7.8 7.6 7.7 7.8 7.8 7.7 7.7 7.6 7.3 7.4 7.2 7.2 7.2 7.0 6.8 6.8 7.0 7.0 6.7 6.5 6.3 6.2 6.2 6.5 6.6 6.1 6.1 6.1 6.0 6.1 6.2 6.8 6.5 6.0 5.7 5.5 5.0 4.6 5.1 5.8 5.6
8.1 7.9 7.8 7.9 7.8 7.6 7.8 7.8 7.9 8.0 7.6 7.6 7.3 7.3 7.3 7.4 7.3 7.2 7.4 7.3 7.2 6.9 6.7 6.3 6.2 6.4 6.7 6.3 5.9 5.6 5.6 6.1 6.0 6.4 6.5 6.0 5.6 5.4 4.8 4.5 5.0 5.4 5.4
7.6 7.9 8.1 8.0 7.8 8.0 8.0 7.7 7.8 7.9 8.0 8.0 7.8 7.8 7.7 7.7 7.5 7.4 7.1 7.2 7.3 7.2 6.8 6.7 6.5 6.1 6.6 6.1 5.9 5.9 5.6 6.0 5.9 6.3 6.6 6.0 5.8 5.5 4.9 4.3 4.9 4.9 4.8
6.2 6.3 6.9 7.9 7.3 7.6 7.5 7.6 7.8 7.9 8.0 7.9 7.8 7.6 7.4 7.4 7.3 7.2 7.0 6.9 7.0 7.3 7.3 6.9 6.6 6.4 6.3 6.1 5.8 5.6 5.3 5.9 5.8 6.1 6.5 6.2 5.8 5.7 5.1 4.3 4.7 4.9 4.9
6.3 6.6 6.9 7.0 7.0 7.4 7.7 7.7 7.4 7.2 7.3 7.1 7.1 7.2 7.3 7.2 7.1 7.0 6.7 6.6 6.7 6.8 7.1 7.3 6.7 6.5 6.2 6.3 5.6 5.7 5.3 5.6 5.7 5.9 6.5 6.5 5.9 5.9 5.3 4.4 4.3 4.6 4.8
6.1 6.3 6.7 6.6 6.9 7.3 7.4 7.6 7.5 6.8 7.0 6.8 6.6 6.9 6.7 6.8 6.9 6.7 6.7 6.4 6.3 6.5 6.6 6.9 6.9 6.4 6.3 6.1 5.7 5.5 5.5 5.3 5.4 5.6 6.2 6.7 6.1 5.9 5.4 4.7 4.0 4.0 4.2
6.3 6.4 6.6 6.6 6.8 6.9 6.7 6.8 6.9 7.0 7.0 7.0 7.0 6.8 6.7 6.8 6.8 6.9 6.9 6.9 6.6 6.6 6.7 6.7 6.6 6.7 6.4 6.1 6.1 5.1 5.5 5.3 5.1 5.5 5.6 6.4 6.3 6.0 5.5 5.0 4.3 4.1 4.0
6.5 6.6 6.6 6.7 6.8 6.9 6.9 6.9 6.8 6.8 6.9 7.0 7.0 7.0 7.0 6.9 6.7 6.5 6.5 6.5 6.4 6.5 6.5 6.5 6.4 6.4 6.3 6.3 6.1 5.4 5.4 5.4 5.2 5.7 5.3 6.1 6.2 6.1 5.9 5.3 4.5 4.6 4.3
6.6 6.6 6.7 6.6 6.6 6.7 6.7 6.7 6.8 7.0 7.1 7.1 7.1 7.0 7.0 7.0 6.8 6.6 6.3 6.7 6.7 6.5 6.7 6.7 6.5 6.3 5.9 5.6 5.9 5.5 5.0 5.3 5.3 5.8 5.4 5.8 6.0 6.1 6.1 5.4 5.0 4.6 4.4
6.6 6.7 6.6 6.6 6.6 6.5 6.6 6.6 6.7 6.7 6.7 6.7 6.6 6.5 6.4 6.3 6.0 5.5 5.0 5.0 6.1 6.8 6.4 6.5 6.5 6.5 6.1 5.6 5.8 5.9 5.4 5.1 5.5 5.5 5.3 5.4 6.1 6.8 6.0 5.6 5.2 5.0 4.6
6.2 6.2 6.2 6.2 6.3 6.3 6.3 6.3 6.4 6.4 6.2 6.2 6.1 6.0 5.8 5.3 4.8 4.7 5.0 5.4 5.8 5.8 6.1 6.1 6.0 6.1 6.1 5.8 5.9 5.9 6.0 5.4 5.4 5.7 5.4 5.3 5.7 6.4 5.9 5.9 5.6 5.1 4.9
6.7 6.5 6.4 6.3 6.3 6.3 6.1 5.9 5.5 5.4 5.9 6.1 5.9 5.9 6.3 6.1 5.5 5.3 5.3 5.1 5.2 5.4 5.5 5.6 5.8 5.7 5.7 5.5 5.2 5.6 5.9 5.1 5.4 5.4 5.3 5.4 5.5 6.5 6.0 5.8 5.9 5.8 5.1
6.6 6.4 6.2 6.4 6.5 6.4 6.5 6.3 6.1 5.4 5.0 4.5 5.5 6.2 6.2 6.2 6.3 6.1 6.2 6.0 5.7 5.6 5.5 5.5 5.3 5.3 5.4 5.1 5.4 5.5 6.0 5.6 5.5 5.5 5.5 5.6 5.4 6.2 6.5 5.8 5.8 5.9 5.7
6.5 6.3 6.1 6.2 6.3 6.3 6.1 5.5 4.7 4.4 4.4 4.3 4.5 4.7 4.7 4.9 5.3 5.9 6.1 6.3 6.3 6.2 6.0 5.9 5.5 5.2 5.0 5.1 5.2 5.5 5.7 5.8 5.5 5.7 5.8 5.9 5.5 5.9 6.6 6.3 5.9 5.8 5.8
6.5 6.3 6.0 5.9 5.8 5.9 5.8 5.5 5.1 5.0 5.0 5.0 5.2 5.5 5.2 5.0 4.9 5.1 5.5 6.0 6.1 6.0 5.9 5.8 6.3 5.9 5.5 5.1 5.2 5.4 5.8 5.7 5.5 5.7 5.9 5.9 5.8 5.9 6.7 6.6 5.9 5.9 6.1
6.4 6.2 6.0 5.8 5.9 5.7 5.5 5.3 5.2 5.4 5.6 5.8 6.0 6.0 6.0 6.2 6.0 5.9 6.1 6.2 6.1 6.2 6.2 5.9 5.3 5.2 6.3 6.0 5.5 5.7 5.9 5.5 5.7 5.9 6.0 6.0 6.0 5.9 6.3 6.4 5.9 6.1 6.2
6.2 6.1 6.0 5.9 5.7 5.5 5.3 4.8 5.1 5.4 5.5 5.7 6.1 6.1 6.3 6.0 6.3 6.2 7.0 6.1 6.2 6.3 6.4 6.3 6.2 5.3 5.4 5.9 5.9 6.3 6.1 6.1 5.8 6.0 6.1 6.1 6.2 6.2 6.2 6.5 5.8 5.9 5.9
6.2 5.8 5.8 5.7 5.7 5.7 5.3 5.2 5.4 5.4 5.5 5.6 6.1 6.1 6.1 6.2 6.3 6.3 6.6 6.5 6.1 6.0 6.3 6.8 7.0 6.8 6.4 6.0 6.1 6.1 6.1 6.3 6.1 6.1 6.1 5.9 6.1 6.4 6.4 6.3 6.1 6.1 5.7
5.3 5.3 5.6 5.5 5.4 5.3 5.1 5.2 5.3 5.6 5.7 6.0 6.1 6.4 6.4 6.4 6.6 6.5 6.3 6.0 6.8 6.3 6.9 7.2 7.3 7.4 7.4 7.3 6.6 6.2 6.2 6.5 6.5 6.2 6.1 6.1 6.1 6.4 6.5 6.3 6.2 6.2 5.8
4.6 5.2 5.3 5.3 5.3 5.4 5.3 5.3 5.3 5.4 5.3 5.7 6.0 6.2 6.4 6.5 6.5 6.1 6.0 6.0 6.5 6.7 7.0 7.3 7.3 7.4 7.7 7.5 7.2 6.5 6.6 6.6 6.6 6.4 6.2 6.1 6.2 6.4 6.6 6.4 5.6 5.6 5.4
5.0 5.1 5.3 5.4 5.6 5.6 5.6 5.3 5.4 5.6 5.7 5.8 6.0 6.1 6.4 6.4 6.5 6.5 6.5 6.5 6.6 7.0 7.3 7.3 7.1 7.3 7.6 7.6 7.4 6.8 6.8 6.6 6.7 6.4 6.1 6.2 6.4 6.3 6.3 6.3 5.8 5.5 5.5
4.9 4.9 5.2 5.2 5.6 5.7 5.7 5.6 5.6 5.7 5.8 5.8 5.9 6.0 6.0 6.2 6.4 6.5 6.5 7.0 7.0 7.0 7.1 7.0 7.1 7.3 7.1 7.1 6.6 6.4 6.5 6.5 6.5 6.5 6.3 6.3 6.3 6.3 6.2 5.9 6.0 5.8 5.9
Wind_Speed
12 12 11 10 11 10 10 10 10 10 9 10 10 11 10 10 9 9 10 11 10 9 8 8 6 7 7 5 3 3 7 1 2 2 2 1 1 5 3 4 8 6 10
8 6 8 7 7 7 8 8 9 10 10 10 10 10 10 11 10 11 11 11 10 10 10 9 10 5 7 7 5 3 6 3 3 4 6 5 3 3 1 3 3 10 8
5 6 4 3 2 4 5 7 8 9 9 10 9 9 10 10 10 11 11 11 11 12 10 10 9 7 8 7 3 2 3 3 4 6 5 4 5 6 5 1 4 5 8
6 5 5 3 3 1 2 4 6 7 8 8 7 9 9 9 10 10 12 11 11 11 10 11 10 8 7 7 5 5 5 4 5 4 5 5 5 4 5 5 7 4 4
12 11 10 10 9 7 7 6 7 8 8 7 6 6 8 8 9 9 11 12 10 11 11 11 10 10 6 2 6 7 6 6 5 7 5 5 6 5 6 3 6 7 5
12 12 10 8 8 7 5 5 4 5 6 7 8 9 9 7 10 7 7 12 12 12 10 11 9 8 7 8 4 1 3 7 6 6 6 6 4 5 3 5 4 4 5
6 7 6 5 5 5 6 7 8 8 7 8 8 9 9 10 11 11 9 11 13 13 12 11 11 5 7 7 5 4 3 5 2 6 5 5 7 6 5 4 1 2 3
6 5 5 6 8 7 7 8 8 8 9 9 9 9 9 9 7 6 8 12 13 13 14 15 11 9 10 11 11 10 9 8 8 7 7 6 6 6 6 5 4 3 4
7 8 9 8 8 9 9 9 9 9 9 9 10 9 9 10 8 5 6 11 12 13 12 12 13 10 12 13 9 11 11 10 10 12 9 12 11 10 8 6 6 8 7
7 9 9 8 10 11 9 8 10 10 12 11 10 10 12 12 11 6 5 9 11 11 12 12 7 9 13 12 9 9 11 11 11 10 7 7 9 7 5 5 5 5 2
10 10 10 9 9 11 11 9 9 10 11 11 12 12 13 13 13 9 9 7 9 10 9 8 8 10 16 16 13 9 10 9 10 11 9 8 8 9 8 7 6 6 2
11 12 12 12 11 11 12 11 12 12 13 13 13 13 12 12 14 12 13 11 4 6 9 7 4 5 13 14 11 10 6 10 9 10 11 10 9 10 9 9 8 7 5
13 14 14 14 14 13 13 13 13 13 14 14 12 13 12 10 9 8 13 12 9 4 6 6 8 8 9 8 11 7 9 8 10 12 12 9 11 9 9 10 8 8 7
14 14 13 13 14 13 13 13 13 13 13 13 12 12 12 11 10 9 8 8 9 7 6 6 7 5 6 7 5 5 10 11 11 10 10 9 11 8 9 7 6 8 7
15 15 15 15 16 14 14 13 13 13 13 13 13 13 13 12 6 7 5 8 8 5 6 5 3 3 4 6 7 11 9 12 11 10 9 10 6 9 9 9 8 8 7
14 13 12 14 14 15 15 15 14 16 16 18 18 15 15 15 4 6 3 5 6 6 6 6 4 5 6 7 8 9 12 11 12 10 10 9 8 10 8 8 9 7 9
15 16 14 13 11 11 13 13 11 14 15 18 19 21 21 21 5 8 3 3 1 2 7 9 8 7 8 8 8 10 13 12 9 9 11 10 9 11 10 8 9 9 7
17 15 13 12 13 13 12 13 11 11 13 13 15 18 16 12 14 11 8 6 6 6 10 11 12 10 6 8 10 8 7 9 11 12 12 11 12 11 9 9 7 8 8
14 14 12 13 12 12 13 13 14 15 14 13 13 14 9 13 5 5 12 7 10 12 12 12 11 12 11 9 8 8 12 9 12 12 12 11 12 9 10 10 9 9 9
12 19 15 12 12 13 11 11 11 12 12 12 11 14 14 4 5 11 11 9 10 12 13 13 12 11 12 12 11 9 11 15 12 12 13 13 12 10 11 10 10 11 10
9 10 15 11 11 11 11 9 10 10 13 14 14 14 17 12 14 8 12 6 9 10 12 11 12 12 10 10 12 12 11 11 13 12 12 12 12 10 11 11 8 7 9
10 9 8 8 9 9 10 12 11 11 11 12 13 13 17 12 14 13 13 8 9 12 8 7 9 10 11 11 10 12 12 13 13 12 12 13 14 12 12 12 8 6 6
9 9 7 8 9 10 10 9 9 10 11 12 11 11 11 9 10 12 12 9 8 5 6 7 11 11 10 12 10 11 12 13 14 13 12 13 13 11 13 10 10 6 10
8 8 8 7 6 7 7 8 8 10 10 11 11 11 11 11 10 11 11 9 6 6 8 9 10 11 12 14 11 11 12 12 9 13 16 13 13 7 11 13 11 13 8
8 7 7 8 7 8 10 10 9 9 10 10 10 10 10 11 11 9 6 3 3 4 6 6 6 11 12 13 10 10 7 9 9 10 10 12 15 11 11 10 10 11 10
9 10 6 7 7 7 8 9 9 9 10 9 9 9 8 7 7 4 1 2 1 1 2 2 4 7 7 4 2 10 11 13 8 8 7 8 8 7 9 11 13 10 11
Wind_Direction
206 200 208 213 223 226 240 245 247 251 253 256 257 258 260 260 257 258 263 275 282 283 273 272 258 271 274 300 289 277 261 170 140 142 147 132 81 15 5 76 97 101 91
183 215 208 210 235 236 229 253 265 263 260 254 257 258 258 257 256 253 254 267 270 257 250 263 269 267 242 244 254 249 329 24 107 155 181 175 172 128 54 84 53 85 95
146 162 182 201 229 262 257 255 267 267 267 264 262 257 258 260 258 256 256 258 260 263 263 261 261 244 250 265 275 257 225 232 191 195 176 166 170 156 151 139 115 101 102
136 131 117 98 67 134 253 275 263 261 270 263 258 263 264 264 259 261 264 262 259 259 258 262 260 253 240 243 231 226 234 231 228 245 161 157 206 150 239 171 166 119 110
62 66 66 66 47 40 47 41 15 356 351 329 292 280 277 268 257 251 262 265 265 264 262 262 252 245 83 285 205 203 232 219 199 218 181 183 194 180 210 191 135 162 131
71 72 53 27 61 37 359 341 16 4 357 336 332 326 322 296 50 11 314 291 289 288 272 265 264 139 127 152 180 294 233 229 252 230 194 209 147 209 139 200 169 161 146
334 62 70 30 352 26 349 336 351 349 339 330 324 326 321 316 33 6 345 308 295 284 278 271 255 214 188 179 186 191 230 122 315 272 275 189 159 222 139 235 93 253 137
334 337 357 23 337 341 334 327 327 319 320 315 312 307 307 299 335 358 348 307 292 280 272 271 263 245 187 204 187 204 206 202 211 223 218 181 176 178 166 211 146 143 106
298 328 339 340 319 315 318 318 311 302 295 293 291 289 295 296 299 287 313 310 295 295 286 266 260 238 186 220 190 197 203 204 110 81 61 109 134 150 183 174 183 192 159
304 313 321 321 306 304 300 294 287 286 283 281 289 295 285 282 286 225 250 303 297 297 293 286 226 223 170 201 194 198 201 202 185 166 142 115 150 166 245 267 223 222 295
317 313 301 295 292 283 286 280 283 283 284 281 278 279 279 275 275 240 190 278 286 297 294 295 325 166 177 181 216 209 201 193 177 180 192 181 187 186 205 223 233 234 259
312 307 303 302 302 306 303 293 281 276 271 270 270 269 268 260 251 231 198 212 271 269 277 282 312 228 181 187 194 226 272 179 184 195 196 188 191 188 194 199 229 234 124
309 305 303 301 298 294 288 283 278 270 266 269 268 270 273 271 270 206 177 184 196 237 264 293 295 246 194 196 207 254 203 196 205 205 202 175 195 211 173 175 200 198 182
302 300 298 293 287 280 276 276 275 276 275 277 275 272 273 273 272 272 225 185 211 200 224 245 242 244 181 205 170 203 220 202 223 205 211 175 189 192 157 182 165 197 203
302 300 295 288 283 282 272 271 276 278 282 289 291 294 294 289 306 59 358 312 320 4 306 302 269 215 210 203 199 199 213 215 227 224 208 180 165 174 184 173 195 194 206
299 299 305 306 298 300 303 301 276 246 253 259 263 263 276 276 183 143 116 96 74 19 262 256 224 219 219 209 205 197 209 206 222 220 219 189 177 166 193 194 183 208 209
301 300 300 296 292 291 294 291 298 306 301 244 238 244 243 250 149 139 118 337 267 216 253 254 240 233 224 211 214 201 198 212 206 221 215 194 202 191 187 197 197 192 207
301 297 294 288 286 287 287 287 289 293 294 297 291 239 239 230 236 228 181 174 240 219 245 243 252 238 223 223 206 200 219 210 205 207 221 197 207 209 183 190 211 197 196
301 295 291 289 293 286 286 279 277 277 276 283 293 303 254 223 223 145 182 231 249 255 251 224 227 247 239 216 218 215 217 212 211 204 208 215 207 206 189 195 197 212 186
294 292 296 296 288 286 281 269 261 272 291 281 283 289 284 125 226 221 212 222 234 246 253 260 264 219 223 232 225 218 230 210 205 202 207 209 204 200 197 202 212 185 194
292 280 277 282 285 296 290 299 303 301 296 292 286 276 283 287 280 256 290 230 226 249 258 247 259 259 245 233 228 216 212 205 203 209 207 199 211 196 189 207 201 174 188
299 277 276 278 279 280 281 282 287 282 278 276 279 280 268 276 276 271 265 261 250 246 287 287 280 269 284 259 248 231 214 201 201 204 212 203 203 201 186 197 205 198 199
312 314 277 278 285 282 275 270 272 275 277 278 277 281 280 265 263 272 282 290 295 312 270 245 255 262 257 258 247 233 225 209 201 194 206 205 196 205 196 185 195 193 200
311 307 304 299 297 305 305 307 301 296 293 288 285 283 286 282 279 274 269 269 290 292 276 275 266 260 254 248 249 236 234 214 194 200 198 196 193 187 199 189 199 189 188
318 316 316 314 319 327 322 316 309 303 300 294 289 283 284 277 281 278 295 271 257 266 268 270 269 270 227 227 209 190 141 163 185 181 184 168 175 168 173 185 181 173 154
309 305 297 328 326 318 318 316 318 319 309 307 302 296 295 308 313 307 108 132 232 293 296 315 334 339 200 120 127 125 124 121 143 153 116 122 128 129 142 141 150 154 154